PST,Max TemperatureF,Mean TemperatureF,Min TemperatureF,Max Dew PointF,MeanDew PointF,Min DewpointF,Max Humidity, Mean Humidity, Min Humidity, Max Sea Level PressureIn, Mean Sea Level PressureIn, Min Sea Level PressureIn, Max VisibilityMiles, Mean VisibilityMiles, Min VisibilityMiles, Max Wind SpeedMPH, Mean Wind SpeedMPH, Max Gust SpeedMPH,PrecipitationIn, CloudCover, Events, WindDirDegrees
2011-11-1,49,33,16,25,17,9,92,61,29,30.57,30.49,30.36,10,10,10,9,2,10,0.00,0,,160
2011-11-2,63,39,14,14,6,-2,65,36,7,30.45,30.14,29.85,10,10,10,22,8,30,0.00,0,,143
2011-11-3,47,36,24,34,28,6,100,64,28,29.86,29.79,29.73,10,10,7,14,3,18,0.01,6,Rain,327
2011-11-4,44,30,16,27,20,14,100,70,40,29.95,29.87,29.81,10,10,9,23,5,28,0.00,2,,210
2011-11-5,43,28,13,32,24,12,92,73,53,29.87,29.80,29.72,10,10,10,15,4,21,T,6,,149
2011-11-6,41,32,23,34,31,26,100,88,76,30.17,29.93,29.76,10,7,1,7,1,8,0.03,8,Rain-Snow,260
2011-11-7,48,32,16,29,25,18,92,65,38,30.30,30.25,30.16,10,10,8,13,3,16,0.00,2,,145
2011-11-8,52,34,15,25,22,14,92,60,28,30.33,30.30,30.25,10,10,10,14,6,17,0.00,1,,164
2011-11-9,55,43,31,25,24,20,64,44,24,30.37,30.29,30.20,10,10,10,15,7,18,0.00,0,,145
2011-11-10,61,45,29,24,19,14,56,37,17,30.21,30.10,29.96,10,10,10,15,7,20,0.00,0,,147
2011-11-11,61,45,29,34,20,7,60,36,11,29.96,29.71,29.53,10,10,10,28,11,40,0.01,3,Rain,202
2011-11-12,47,39,30,30,25,21,75,56,37,29.92,29.82,29.71,10,10,10,24,8,31,T,4,,254
2011-11-13,52,38,24,31,28,22,84,61,38,29.94,29.88,29.77,10,10,10,30,11,38,0.00,0,,297
2011-11-14,52,36,20,31,27,20,96,67,38,30.07,30.00,29.92,10,10,10,28,9,39,0.00,3,,263
2011-11-15,46,30,14,30,23,16,92,69,45,30.31,30.21,30.07,10,10,10,14,3,17,0.00,1,,285
2011-11-16,52,32,11,37,29,10,100,77,54,30.27,30.09,29.81,10,10,10,21,4,28,T,5,,179
2011-11-17,50,42,34,38,30,24,79,59,39,29.86,29.77,29.63,10,10,4,25,10,37,T,7,Rain-Snow,288
2011-11-18,34,25,15,32,27,14,100,85,69,29.77,29.63,29.57,10,6,0,17,5,23,0.13,7,Fog-Snow,219
2011-11-19,40,31,22,27,23,21,92,70,48,29.85,29.78,29.70,10,10,10,15,6,20,T,5,,197
2011-11-20,42,30,18,28,23,16,96,75,54,29.95,29.88,29.80,10,10,10,12,3,16,0.00,3,,174
2011-11-21,49,42,35,36,30,26,70,60,49,29.88,29.85,29.81,10,10,10,28,14,37,0.01,5,Rain,178
2011-11-22,54,47,40,38,36,31,82,68,54,29.83,29.79,29.71,10,10,10,29,14,38,0.02,4,Rain,177
2011-11-23,57,48,38,34,28,25,64,50,35,29.80,29.67,29.55,10,10,10,28,12,38,0.00,3,,194
2011-11-24,50,35,19,33,27,17,92,61,29,29.94,29.82,29.76,10,10,10,31,11,40,T,4,Rain,194
2011-11-25,46,34,22,34,23,15,89,60,31,30.46,30.28,29.98,10,10,10,21,7,26,T,3,Rain,330
2011-11-26,57,44,31,27,25,22,61,47,32,30.50,30.40,30.27,10,10,10,16,8,20,0.00,3,,145
2011-11-27,62,50,38,35,29,25,79,52,25,30.28,30.20,30.09,10,10,10,30,11,40,0.00,1,,173
2011-11-28,52,39,26,35,32,26,100,75,50,30.41,30.36,30.27,10,10,10,9,3,12,0.00,3,,295
2011-11-29,56,40,23,37,30,23,100,74,47,30.35,30.26,30.13,10,10,10,18,3,23,0.00,1,,316
2011-11-30,48,36,23,30,27,23,92,67,42,30.71,30.48,30.25,10,10,10,16,7,21,0.00,3,,324